Flag for Germany Weather past 2 weeks in Zerbst/Anhalt, Saxony-Anhalt, Germany

Now
35 °F

Overcast.


Feels Like: 35 °F
Forecast: 36 / 40 °F
Wind: 2 mph from South

Location: Magdeburg

Current Time: Jan 26, 2015 at 10:28:23 AM

Latest Report: Jan 26, 2015 at 9:00 AM


Visibility: 5 mi

Pressure: 30.21 "Hg

Humidity: 93%

Dew point: 33 °F

Location of Zerbst/AnhaltLocation

Historic Weather in Zerbst/Anhalt — Graph

°F

Zerbst/Anhalt temperature yesterday

Maximum temperature yesterday: 37 °F (at 3:00 PM)
Minimum temperature yesterday: 30 °F (at 6:00 AM)
Average temperature yesterday: 34 °F

Past Weeks' High & Low Weather Summary

 TemperatureHumidityPressure
High54 °F (Jan 13, 2:00 PM)98% (Jan 20, 9:00 AM)30.34 "Hg (Jan 20, 9:00 AM)
Low24 °F (Jan 19, 7:00 AM)58% (Jan 13, 5:00 PM)29.55 "Hg (Jan 15, 7:00 PM)
Average37 °F85%29.96 "Hg
* Reported Jan 11 9:00 AM — Jan 26 9:00 AM, Zerbst/Anhalt, Weather by CustomWeather, © 2014

Note: Actual official high and low records may vary slightly from our data, if they occured in-between our weather recording intervals... More about our weather records

Advertising

Zerbst/Anhalt weather history for previous 24 hours

 ConditionsComfort  
Time TempWeatherWind HumidityBarometerVisibility
9:00 AM
Jan 26
35 °FOvercast.2 mph93%30.21 "Hg5 mi
8:00 AM34 °FFog.2 mph94%30.22 "Hg4 mi
7:00 AM34 °FFog.2 mph96%30.23 "Hg2 mi
6:00 AM35 °FFog.2 mph97%30.25 "Hg2 mi
5:00 AM35 °FFog.2 mph95%30.26 "Hg2 mi
3:00 AM35 °FLow clouds.2 mph96%30.29 "Hg2 mi
2:00 AM36 °FLow clouds.1 mph95%30.30 "Hg2 mi
1:00 AM35 °FLow clouds.1 mph96%30.30 "Hg2 mi
12:00 AM35 °FLow clouds.1 mph96%30.31 "Hg2 mi
11:00 PM
Jan 25
35 °FOvercast.1 mph95%30.32 "Hg3 mi
9:00 PM35 °FLight rain. Low clouds.1 mph96%30.33 "Hg5 mi
8:00 PM35 °FLow clouds.1 mph93%30.33 "Hg6 mi
7:00 PM35 °FLow clouds.2 mph93%30.33 "Hg6 mi
6:00 PM35 °FLow clouds.1 mph92%30.32 "Hg6 mi
5:00 PM36 °FLow clouds.1 mph92%30.31 "Hg10 mi
4:00 PM36 °FLow clouds.1 mph91%30.30 "Hg10 mi
3:00 PM37 °FLow clouds.2 mph89%30.29 "Hg7 mi
2:00 PM37 °FLow clouds.1 mph89%30.29 "Hg9 mi
1:00 PM36 °FLow clouds.3 mph90%30.30 "Hg12 mi
12:00 PM36 °FLow clouds.3 mph87%30.30 "Hg11 mi
11:00 AM36 °FPartly sunny.1 mph89%30.31 "Hg7 mi
Weather by CustomWeather, © 2014

See weather overviewHow to use our weather pages